Location: Eymir
(36.7333°N, 29.7833°E)
Time: 05:07:23
(UTC+00:00)

CUTE 1.7 + AOD 2 - Pass Details

Date: 26 May 2026
Orbit: 531 x 545 km, 97.8° (Epoch: 8 June)

Event Time Altitude Azimuth Distance (km) Brightness Sun altitude
Rises 01:30:22 0° 35° (NE) 2,679 ? -13.5°
Reaches altitude 10° 01:33:22 10° 61° (ENE) 1,784 ? -13.0°
Maximum altitude 01:35:26 14° 93° (E) 1,539 ? -12.7°
Drops below altitude 10° 01:37:31 10° 126° (SE) 1,779 ? -12.4°
Sets 01:40:29 0° 152° (SSE) 2,666 ? -11.9°
